Weather in Tavrovo

Russia / Belgorod Oblast     50°30′18″N   36°34′34″E
temp.,
°C
wind,
m/s
gust,
m/s
humid.,
%
clouds,
%
prec.,
mm/h
press.,
hPa
HPBL,
m
16 september, thu
thu1600:00+10nnw34545 0.0 101749
03:00+8nw3460100 0.0 101864
06:00+7nnw35700 0.0 101889
09:00+12n455115 0.0 1019513
12:00+17n44330 0.0 10191421
15:00+18n33270 0.0 10181599
18:00+16nne23340 0.0 101837
21:00+10ne22464 0.0 101911
17 september, fri
fri1700:00+9ene2249100 0.0 101910
03:00+8se115115 0.0 101910
06:00+7sse125463 0.0 101810
09:00+13sse223642 0.0 1018275
12:00+17s2230100 0.0 1017888
15:00+17ne2333100 0.0 101590
18:00+11ene61066100 0.1 1015277
21:00+11ene5973100 0.1 1016274
18 september, sat
sat1800:00+11e51271100 0.0 1015399
03:00+10ene71185100 0.3 1016369
06:00+10e81485100 0.0 1016427
09:00+12ese81472100 0.0 1016612
12:00+17ese7946100 0.0 10161073
15:00+19ese81039100 0.1 10151615
18:00+15e101566100 0.0 1014792
21:00+12ese81681100 0.2 1016609
19 september, sun
sun1900:00+11ese71483100 0.3 1016603
03:00+10ese61187100 3.9 1015443
06:00+9ese61185100 1.3 1014382
09:00+9ese4989100 3.7 1014308
12:00+10ese4891100 2.1 1013283
15:00+10ese3590100 3.5 1012244
18:00+11ese1291100 0.5 1012105
21:00+9ese129495 0.5 101110
20 september, mon
mon2000:00+10e1195100 0.0 101010
03:00+9e229767 0.0 100930
06:00+10ese3798100 0.1 1008181
09:00+11sse2597100 1.6 1008225
12:00+14sw4683100 0.9 1007609
15:00+13wsw687398 1.3 10081039
18:00+11wsw487734 0.1 1009559
21:00+10wsw3780100 0.1 1009448